owner,sensor,date,latitude,longitude,vertical_datum,wind_speed,wind_to_direction,wind_speed_of_gust,qcFlag 
WAVCIS,ioos:station:WAVCIS:CSI03:3,2012-09-01T00:00:00Z,29.4412,-92.0613,10.0,6.252,178.0,,'11111222,11111222,99999999' 
WAVCIS,ioos:station:WAVCIS:CSI03:3,2012-09-01T01:00:00Z,29.4412,-92.0613,10.0,6.662,163.0,,'11111222,11111222,99999999' 
WAVCIS,ioos:station:WAVCIS:CSI03:3,2012-09-01T02:00:00Z,29.4412,-92.0613,10.0,5.454,196.0,,'11111222,11111222,99999999' 
WAVCIS,ioos:station:WAVCIS:CSI03:3,2012-09-01T03:00:00Z,29.4412,-92.0613,10.0,5.937,178.0,,'11111222,11111222,99999999' 
WAVCIS,ioos:station:WAVCIS:CSI03:3,2012-09-01T04:00:00Z,29.4412,-92.0613,10.0,5.361,174.0,,'11111222,11111222,99999999' 
WAVCIS,ioos:station:WAVCIS:CSI03:3,2012-09-01T05:00:00Z,29.4412,-92.0613,10.0,6.359,173.0,,'11111222,11111222,99999999' 
WAVCIS,ioos:station:WAVCIS:CSI03:3,2012-09-01T06:00:00Z,29.4412,-92.0613,10.0,6.04,175.0,,'11111222,11111222,99999999' 
WAVCIS,ioos:station:WAVCIS:CSI03:3,2012-09-01T07:00:00Z,29.4412,-92.0613,10.0,6.584,170.0,,'11111222,11111222,99999999' 
WAVCIS,ioos:station:WAVCIS:CSI03:3,2012-09-01T08:00:00Z,29.4412,-92.0613,10.0,4.713,177.0,,'11111222,11111222,99999999' 
WAVCIS,ioos:station:WAVCIS:CSI03:3,2012-09-01T09:00:00Z,29.4412,-92.0613,10.0,6.305,159.0,,'11111222,11111222,99999999' 
WAVCIS,ioos:station:WAVCIS:CSI03:3,2012-09-01T10:00:00Z,29.4412,-92.0613,10.0,4.545,154.0,,'11111222,11111222,99999999' 
WAVCIS,ioos:station:WAVCIS:CSI03:3,2012-09-01T11:00:00Z,29.4412,-92.0613,10.0,2.977,182.0,,'11111222,11111222,99999999' 
WAVCIS,ioos:station:WAVCIS:CSI03:3,2012-09-01T12:00:00Z,29.4412,-92.0613,10.0,4.853,181.0,,'11111222,11111222,99999999' 
WAVCIS,ioos:station:WAVCIS:CSI03:3,2012-09-01T13:00:00Z,29.4412,-92.0613,10.0,1.61,194.0,,'11111222,11111222,99999999' 
WAVCIS,ioos:station:WAVCIS:CSI03:3,2012-09-01T14:00:00Z,29.4412,-92.0613,10.0,2.004,198.0,,'11111222,11111222,99999999' 
WAVCIS,ioos:station:WAVCIS:CSI03:3,2012-09-01T15:00:00Z,29.4412,-92.0613,10.0,2.567,205.0,,'11111222,11111222,99999999' 
WAVCIS,ioos:station:WAVCIS:CSI03:3,2012-09-01T16:00:00Z,29.4412,-92.0613,10.0,2.164,181.0,,'11111222,11111222,99999999' 
WAVCIS,ioos:station:WAVCIS:CSI03:3,2012-09-01T17:00:00Z,29.4412,-92.0613,10.0,2.044,179.0,,'11111222,11111222,99999999' 
WAVCIS,ioos:station:WAVCIS:CSI03:3,2012-09-01T18:00:00Z,29.4412,-92.0613,10.0,3.306,184.0,,'11111222,11111222,99999999' 
WAVCIS,ioos:station:WAVCIS:CSI03:3,2012-09-01T19:00:00Z,29.4412,-92.0613,10.0,2.991,194.0,,'11111222,11111222,99999999' 
WAVCIS,ioos:station:WAVCIS:CSI03:3,2012-09-01T20:00:00Z,29.4412,-92.0613,10.0,3.313,187.0,,'11111222,11111222,99999999' 
WAVCIS,ioos:station:WAVCIS:CSI03:3,2012-09-01T21:00:00Z,29.4412,-92.0613,10.0,2.665,191.0,,'11111222,11111222,99999999' 
WAVCIS,ioos:station:WAVCIS:CSI03:3,2012-09-01T22:00:00Z,29.4412,-92.0613,10.0,2.692,194.0,,'11111222,11111222,99999999' 
WAVCIS,ioos:station:WAVCIS:CSI03:3,2012-09-01T23:00:00Z,29.4412,-92.0613,10.0,0.779,188.0,,'11111222,11111222,99999999' 
WAVCIS,ioos:station:WAVCIS:CSI03:3,2012-09-02T00:00:00Z,29.4412,-92.0613,10.0,3.048,194.0,,'11111222,11111222,99999999' 
WAVCIS,ioos:station:WAVCIS:CSI03:3,2012-09-02T01:00:00Z,29.4412,-92.0613,10.0,1.959,187.0,,'11111222,11111222,99999999' 
WAVCIS,ioos:station:WAVCIS:CSI03:3,2012-09-02T02:00:00Z,29.4412,-92.0613,10.0,3.431,197.0,,'11111222,11111222,99999999' 
WAVCIS,ioos:station:WAVCIS:CSI03:3,2012-09-02T03:00:00Z,29.4412,-92.0613,10.0,3.637,183.0,,'11111222,11111222,99999999' 
WAVCIS,ioos:station:WAVCIS:CSI03:3,2012-09-02T04:00:00Z,29.4412,-92.0613,10.0,5.335,177.0,,'11111222,11111222,99999999' 
WAVCIS,ioos:station:WAVCIS:CSI03:3,2012-09-02T05:00:00Z,29.4412,-92.0613,10.0,5.803,177.0,,'11111222,11111222,99999999' 
WAVCIS,ioos:station:WAVCIS:CSI03:3,2012-09-02T06:00:00Z,29.4412,-92.0613,10.0,4.971,179.0,,'11111222,11111222,99999999' 
WAVCIS,ioos:station:WAVCIS:CSI03:3,2012-09-02T07:00:00Z,29.4412,-92.0613,10.0,5.203,180.0,,'11111222,11111222,99999999' 
WAVCIS,ioos:station:WAVCIS:CSI03:3,2012-09-02T08:00:00Z,29.4412,-92.0613,10.0,3.887,198.0,,'11111222,11111222,99999999' 
WAVCIS,ioos:station:WAVCIS:CSI03:3,2012-09-02T09:00:00Z,29.4412,-92.0613,10.0,2.977,202.0,,'11111222,11111222,99999999' 
WAVCIS,ioos:station:WAVCIS:CSI03:3,2012-09-02T10:00:00Z,29.4412,-92.0613,10.0,1.229,210.0,,'11111222,11111222,99999999' 
WAVCIS,ioos:station:WAVCIS:CSI03:3,2012-09-02T11:00:00Z,29.4412,-92.0613,10.0,2.527,232.0,,'11111222,11111222,99999999' 
WAVCIS,ioos:station:WAVCIS:CSI03:3,2012-09-02T12:00:00Z,29.4412,-92.0613,10.0,0.431,205.0,,'11111222,11111222,99999999' 
WAVCIS,ioos:station:WAVCIS:CSI03:3,2012-09-02T13:00:00Z,29.4412,-92.0613,10.0,0.544,205.0,,'11111222,11111222,99999999' 
WAVCIS,ioos:station:WAVCIS:CSI03:3,2012-09-02T14:00:00Z,29.4412,-92.0613,10.0,0.7,210.0,,'11111222,11111222,99999999' 
WAVCIS,ioos:station:WAVCIS:CSI03:3,2012-09-02T15:00:00Z,29.4412,-92.0613,10.0,2.441,240.0,,'11111222,11111222,99999999' 
WAVCIS,ioos:station:WAVCIS:CSI03:3,2012-09-02T16:00:00Z,29.4412,-92.0613,10.0,0.551,234.0,,'11111222,11111222,99999999' 
WAVCIS,ioos:station:WAVCIS:CSI03:3,2012-09-02T17:00:00Z,29.4412,-92.0613,10.0,1.69,239.0,,'11111222,11111222,99999999' 
WAVCIS,ioos:station:WAVCIS:CSI03:3,2012-09-02T18:00:00Z,29.4412,-92.0613,10.0,2.926,260.0,,'11111222,11111222,99999999' 
WAVCIS,ioos:station:WAVCIS:CSI03:3,2012-09-02T19:00:00Z,29.4412,-92.0613,10.0,2.796,250.0,,'11111222,11111222,99999999' 
WAVCIS,ioos:station:WAVCIS:CSI03:3,2012-09-02T20:00:00Z,29.4412,-92.0613,10.0,3.153,251.0,,'11111222,11111222,99999999' 
WAVCIS,ioos:station:WAVCIS:CSI03:3,2012-09-02T21:00:00Z,29.4412,-92.0613,10.0,3.694,246.0,,'11111222,11111222,99999999' 
WAVCIS,ioos:station:WAVCIS:CSI03:3,2012-09-02T22:00:00Z,29.4412,-92.0613,10.0,3.859,245.0,,'11111222,11111222,99999999' 
WAVCIS,ioos:station:WAVCIS:CSI03:3,2012-09-02T23:00:00Z,29.4412,-92.0613,10.0,3.154,254.0,,'11111222,11111222,99999999' 
WAVCIS,ioos:station:WAVCIS:CSI03:3,2012-09-03T00:00:00Z,29.4412,-92.0613,10.0,1.948,232.0,,'11111222,11111222,99999999' 
WAVCIS,ioos:station:WAVCIS:CSI03:3,2012-09-03T01:00:00Z,29.4412,-92.0613,10.0,1.051,225.0,,'11111222,11111222,99999999' 
WAVCIS,ioos:station:WAVCIS:CSI03:3,2012-09-03T02:00:00Z,29.4412,-92.0613,10.0,0.8,216.0,,'11111222,11111222,99999999' 
WAVCIS,ioos:station:WAVCIS:CSI03:3,2012-09-03T03:00:00Z,29.4412,-92.0613,10.0,3.32,236.0,,'11111222,11111222,99999999' 
WAVCIS,ioos:station:WAVCIS:CSI03:3,2012-09-03T04:00:00Z,29.4412,-92.0613,10.0,2.183,229.0,,'11111222,11111222,99999999' 
WAVCIS,ioos:station:WAVCIS:CSI03:3,2012-09-03T05:00:00Z,29.4412,-92.0613,10.0,2.129,226.0,,'11111222,11111222,99999999' 
WAVCIS,ioos:station:WAVCIS:CSI03:3,2012-09-03T06:00:00Z,29.4412,-92.0613,10.0,1.665,226.0,,'11111222,11111222,99999999' 
WAVCIS,ioos:station:WAVCIS:CSI03:3,2012-09-03T07:00:00Z,29.4412,-92.0613,10.0,2.848,231.0,,'11111222,11111222,99999999' 
WAVCIS,ioos:station:WAVCIS:CSI03:3,2012-09-03T08:00:00Z,29.4412,-92.0613,10.0,4.031,239.0,,'11111222,11111222,99999999' 
WAVCIS,ioos:station:WAVCIS:CSI03:3,2012-09-03T09:00:00Z,29.4412,-92.0613,10.0,4.641,243.0,,'11111222,11111222,99999999' 
WAVCIS,ioos:station:WAVCIS:CSI03:3,2012-09-03T10:00:00Z,29.4412,-92.0613,10.0,4.137,252.0,,'11111222,11111222,99999999' 
WAVCIS,ioos:station:WAVCIS:CSI03:3,2012-09-03T11:00:00Z,29.4412,-92.0613,10.0,5.958,263.0,,'11111222,11111222,99999999' 
WAVCIS,ioos:station:WAVCIS:CSI03:3,2012-09-03T12:00:00Z,29.4412,-92.0613,10.0,4.808,259.0,,'11111222,11111222,99999999' 
WAVCIS,ioos:station:WAVCIS:CSI03:3,2012-09-03T13:00:00Z,29.4412,-92.0613,10.0,4.038,249.0,,'11111222,11111222,99999999' 
WAVCIS,ioos:station:WAVCIS:CSI03:3,2012-09-03T14:00:00Z,29.4412,-92.0613,10.0,5.549,266.0,,'11111222,11111222,99999999' 
WAVCIS,ioos:station:WAVCIS:CSI03:3,2012-09-03T15:00:00Z,29.4412,-92.0613,10.0,5.48,271.0,,'11111222,11111222,99999999' 
WAVCIS,ioos:station:WAVCIS:CSI03:3,2012-09-03T16:00:00Z,29.4412,-92.0613,10.0,4.554,276.0,,'11111222,11111222,99999999' 
WAVCIS,ioos:station:WAVCIS:CSI03:3,2012-09-03T17:00:00Z,29.4412,-92.0613,10.0,4.926,277.0,,'11111222,11111222,99999999' 
WAVCIS,ioos:station:WAVCIS:CSI03:3,2012-09-03T18:00:00Z,29.4412,-92.0613,10.0,5.142,269.0,,'11111222,11111222,99999999' 
WAVCIS,ioos:station:WAVCIS:CSI03:3,2012-09-03T19:00:00Z,29.4412,-92.0613,10.0,5.329,266.0,,'11111222,11111222,99999999' 
WAVCIS,ioos:station:WAVCIS:CSI03:3,2012-09-03T20:00:00Z,29.4412,-92.0613,10.0,5.938,273.0,,'11111222,11111222,99999999' 
WAVCIS,ioos:station:WAVCIS:CSI03:3,2012-09-03T21:00:00Z,29.4412,-92.0613,10.0,5.662,270.0,,'11111222,11111222,99999999' 
WAVCIS,ioos:station:WAVCIS:CSI03:3,2012-09-03T22:00:00Z,29.4412,-92.0613,10.0,4.627,267.0,,'11111222,11111222,99999999' 
WAVCIS,ioos:station:WAVCIS:CSI03:3,2012-09-03T23:00:00Z,29.4412,-92.0613,10.0,3.933,261.0,,'11111222,11111222,99999999' 
WAVCIS,ioos:station:WAVCIS:CSI03:3,2012-09-04T00:00:00Z,29.4412,-92.0613,10.0,4.002,248.0,,'11111222,11111222,99999999' 
WAVCIS,ioos:station:WAVCIS:CSI03:3,2012-09-04T01:00:00Z,29.4412,-92.0613,10.0,3.797,245.0,,'11111222,11111222,99999999' 
WAVCIS,ioos:station:WAVCIS:CSI03:3,2012-09-04T02:00:00Z,29.4412,-92.0613,10.0,3.958,242.0,,'11111222,11111222,99999999' 
WAVCIS,ioos:station:WAVCIS:CSI03:3,2012-09-04T03:00:00Z,29.4412,-92.0613,10.0,2.209,232.0,,'11111222,11111222,99999999' 
WAVCIS,ioos:station:WAVCIS:CSI03:3,2012-09-04T04:00:00Z,29.4412,-92.0613,10.0,1.656,226.0,,'11111222,11111222,99999999' 
WAVCIS,ioos:station:WAVCIS:CSI03:3,2012-09-04T05:00:00Z,29.4412,-92.0613,10.0,2.421,229.0,,'11111222,11111222,99999999' 
WAVCIS,ioos:station:WAVCIS:CSI03:3,2012-09-04T06:00:00Z,29.4412,-92.0613,10.0,3.35,238.0,,'11111222,11111222,99999999' 
WAVCIS,ioos:station:WAVCIS:CSI03:3,2012-09-04T07:00:00Z,29.4412,-92.0613,10.0,4.131,238.0,,'11111222,11111222,99999999' 
WAVCIS,ioos:station:WAVCIS:CSI03:3,2012-09-04T08:00:00Z,29.4412,-92.0613,10.0,4.28,239.0,,'11111222,11111222,99999999' 
WAVCIS,ioos:station:WAVCIS:CSI03:3,2012-09-04T09:00:00Z,29.4412,-92.0613,10.0,4.991,244.0,,'11111222,11111222,99999999' 
WAVCIS,ioos:station:WAVCIS:CSI03:3,2012-09-04T10:00:00Z,29.4412,-92.0613,10.0,4.498,248.0,,'11111222,11111222,99999999' 
WAVCIS,ioos:station:WAVCIS:CSI03:3,2012-09-04T11:00:00Z,29.4412,-92.0613,10.0,4.801,255.0,,'11111222,11111222,99999999' 
WAVCIS,ioos:station:WAVCIS:CSI03:3,2012-09-04T12:00:00Z,29.4412,-92.0613,10.0,5.188,258.0,,'11111222,11111222,99999999' 
WAVCIS,ioos:station:WAVCIS:CSI03:3,2012-09-04T13:00:00Z,29.4412,-92.0613,10.0,7.75,268.0,,'11111222,11111222,99999999' 
WAVCIS,ioos:station:WAVCIS:CSI03:3,2012-09-04T14:00:00Z,29.4412,-92.0613,10.0,8.04,270.0,,'11111222,11111222,99999999' 
WAVCIS,ioos:station:WAVCIS:CSI03:3,2012-09-04T15:00:00Z,29.4412,-92.0613,10.0,6.618,278.0,,'11111222,11111222,99999999' 
WAVCIS,ioos:station:WAVCIS:CSI03:3,2012-09-04T16:00:00Z,29.4412,-92.0613,10.0,6.753,286.0,,'11111222,11111222,99999999' 
WAVCIS,ioos:station:WAVCIS:CSI03:3,2012-09-04T17:00:00Z,29.4412,-92.0613,10.0,5.371,285.0,,'11111222,11111222,99999999' 
WAVCIS,ioos:station:WAVCIS:CSI03:3,2012-09-04T18:00:00Z,29.4412,-92.0613,10.0,5.844,286.0,,'11111222,11111222,99999999' 
WAVCIS,ioos:station:WAVCIS:CSI03:3,2012-09-04T19:00:00Z,29.4412,-92.0613,10.0,5.965,275.0,,'11111222,11111222,99999999' 
WAVCIS,ioos:station:WAVCIS:CSI03:3,2012-09-04T20:00:00Z,29.4412,-92.0613,10.0,5.767,265.0,,'11111222,11111222,99999999' 
WAVCIS,ioos:station:WAVCIS:CSI03:3,2012-09-04T21:00:00Z,29.4412,-92.0613,10.0,6.153,267.0,,'11111222,11111222,99999999' 
WAVCIS,ioos:station:WAVCIS:CSI03:3,2012-09-04T22:00:00Z,29.4412,-92.0613,10.0,6.089,269.0,,'11111222,11111222,99999999' 
WAVCIS,ioos:station:WAVCIS:CSI03:3,2012-09-04T23:00:00Z,29.4412,-92.0613,10.0,4.87,260.0,,'11111222,11111222,99999999' 
WAVCIS,ioos:station:WAVCIS:CSI03:3,2012-09-05T00:00:00Z,29.4412,-92.0613,10.0,5.974,267.0,,'11111222,11111222,99999999' 
WAVCIS,ioos:station:WAVCIS:CSI03:3,2012-09-05T01:00:00Z,29.4412,-92.0613,10.0,5.434,265.0,,'11111222,11111222,99999999' 
WAVCIS,ioos:station:WAVCIS:CSI03:3,2012-09-05T02:00:00Z,29.4412,-92.0613,10.0,3.77,251.0,,'11111222,11111222,99999999' 
WAVCIS,ioos:station:WAVCIS:CSI03:3,2012-09-05T03:00:00Z,29.4412,-92.0613,10.0,3.728,247.0,,'11111222,11111222,99999999' 
WAVCIS,ioos:station:WAVCIS:CSI03:3,2012-09-05T04:00:00Z,29.4412,-92.0613,10.0,4.406,239.0,,'11111222,11111222,99999999' 
WAVCIS,ioos:station:WAVCIS:CSI03:3,2012-09-05T05:00:00Z,29.4412,-92.0613,10.0,4.651,240.0,,'11111222,11111222,99999999' 
WAVCIS,ioos:station:WAVCIS:CSI03:3,2012-09-05T06:00:00Z,29.4412,-92.0613,10.0,4.109,239.0,,'11111222,11111222,99999999' 
WAVCIS,ioos:station:WAVCIS:CSI03:3,2012-09-05T07:00:00Z,29.4412,-92.0613,10.0,4.699,242.0,,'11111222,11111222,99999999' 
WAVCIS,ioos:station:WAVCIS:CSI03:3,2012-09-05T08:00:00Z,29.4412,-92.0613,10.0,3.928,253.0,,'11111222,11111222,99999999' 
WAVCIS,ioos:station:WAVCIS:CSI03:3,2012-09-05T09:00:00Z,29.4412,-92.0613,10.0,4.175,248.0,,'11111222,11111222,99999999' 
WAVCIS,ioos:station:WAVCIS:CSI03:3,2012-09-05T10:00:00Z,29.4412,-92.0613,10.0,5.725,257.0,,'11111222,11111222,99999999' 
WAVCIS,ioos:station:WAVCIS:CSI03:3,2012-09-05T11:00:00Z,29.4412,-92.0613,10.0,7.73,271.0,,'11111222,11111222,99999999' 
WAVCIS,ioos:station:WAVCIS:CSI03:3,2012-09-05T12:00:00Z,29.4412,-92.0613,10.0,6.962,274.0,,'11111222,11111222,99999999' 
WAVCIS,ioos:station:WAVCIS:CSI03:3,2012-09-05T13:00:00Z,29.4412,-92.0613,10.0,7.14,281.0,,'11111222,11111222,99999999' 
WAVCIS,ioos:station:WAVCIS:CSI03:3,2012-09-05T14:00:00Z,29.4412,-92.0613,10.0,7.76,271.0,,'11111222,11111222,99999999' 
WAVCIS,ioos:station:WAVCIS:CSI03:3,2012-09-05T15:00:00Z,29.4412,-92.0613,10.0,6.531,283.0,,'11111222,11111222,99999999' 
WAVCIS,ioos:station:WAVCIS:CSI03:3,2012-09-05T16:00:00Z,29.4412,-92.0613,10.0,6.635,287.0,,'11111222,11111222,99999999' 
WAVCIS,ioos:station:WAVCIS:CSI03:3,2012-09-05T17:00:00Z,29.4412,-92.0613,10.0,6.19,285.0,,'11111222,11111222,99999999' 
WAVCIS,ioos:station:WAVCIS:CSI03:3,2012-09-05T18:00:00Z,29.4412,-92.0613,10.0,5.891,283.0,,'11111222,11111222,99999999' 
WAVCIS,ioos:station:WAVCIS:CSI03:3,2012-09-05T19:00:00Z,29.4412,-92.0613,10.0,6.86,276.0,,'11111222,11111222,99999999' 
WAVCIS,ioos:station:WAVCIS:CSI03:3,2012-09-05T20:00:00Z,29.4412,-92.0613,10.0,7.78,273.0,,'11111222,11111222,99999999' 
WAVCIS,ioos:station:WAVCIS:CSI03:3,2012-09-05T21:00:00Z,29.4412,-92.0613,10.0,7.42,268.0,,'11111222,11111222,99999999' 
WAVCIS,ioos:station:WAVCIS:CSI03:3,2012-09-05T22:00:00Z,29.4412,-92.0613,10.0,7.21,274.0,,'11111222,11111222,99999999' 
WAVCIS,ioos:station:WAVCIS:CSI03:3,2012-09-05T23:00:00Z,29.4412,-92.0613,10.0,6.819,276.0,,'11111222,11111222,99999999' 
WAVCIS,ioos:station:WAVCIS:CSI03:3,2012-09-06T00:00:00Z,29.4412,-92.0613,10.0,6.861,271.0,,'11111222,11111222,99999999' 
WAVCIS,ioos:station:WAVCIS:CSI03:3,2012-09-06T01:00:00Z,29.4412,-92.0613,10.0,6.248,262.0,,'11111222,11111222,99999999' 
WAVCIS,ioos:station:WAVCIS:CSI03:3,2012-09-06T02:00:00Z,29.4412,-92.0613,10.0,6.963,271.0,,'11111222,11111222,99999999' 
WAVCIS,ioos:station:WAVCIS:CSI03:3,2012-09-06T03:00:00Z,29.4412,-92.0613,10.0,6.356,282.0,,'11111222,11111222,99999999' 
WAVCIS,ioos:station:WAVCIS:CSI03:3,2012-09-06T04:00:00Z,29.4412,-92.0613,10.0,5.79,284.0,,'11111222,11111222,99999999' 
WAVCIS,ioos:station:WAVCIS:CSI03:3,2012-09-06T05:00:00Z,29.4412,-92.0613,10.0,6.523,274.0,,'11111222,11111222,99999999' 
WAVCIS,ioos:station:WAVCIS:CSI03:3,2012-09-06T06:00:00Z,29.4412,-92.0613,10.0,6.58,269.0,,'11111222,11111222,99999999' 
WAVCIS,ioos:station:WAVCIS:CSI03:3,2012-09-06T07:00:00Z,29.4412,-92.0613,10.0,6.47,280.0,,'11111222,11111222,99999999' 
WAVCIS,ioos:station:WAVCIS:CSI03:3,2012-09-06T08:00:00Z,29.4412,-92.0613,10.0,6.525,283.0,,'11111222,11111222,99999999' 
WAVCIS,ioos:station:WAVCIS:CSI03:3,2012-09-06T09:00:00Z,29.4412,-92.0613,10.0,5.993,285.0,,'11111222,11111222,99999999' 
WAVCIS,ioos:station:WAVCIS:CSI03:3,2012-09-06T10:00:00Z,29.4412,-92.0613,10.0,5.765,290.0,,'11111222,11111222,99999999' 
WAVCIS,ioos:station:WAVCIS:CSI03:3,2012-09-06T11:00:00Z,29.4412,-92.0613,10.0,5.842,322.0,,'11111222,11111222,99999999' 
WAVCIS,ioos:station:WAVCIS:CSI03:3,2012-09-06T12:00:00Z,29.4412,-92.0613,10.0,6.212,320.0,,'11111222,11111222,99999999' 
WAVCIS,ioos:station:WAVCIS:CSI03:3,2012-09-06T13:00:00Z,29.4412,-92.0613,10.0,6.585,322.0,,'11111222,11111222,99999999' 
WAVCIS,ioos:station:WAVCIS:CSI03:3,2012-09-06T14:00:00Z,29.4412,-92.0613,10.0,6.893,325.0,,'11111222,11111222,99999999' 
WAVCIS,ioos:station:WAVCIS:CSI03:3,2012-09-06T15:00:00Z,29.4412,-92.0613,10.0,6.248,336.0,,'11111222,11111222,99999999' 
WAVCIS,ioos:station:WAVCIS:CSI03:3,2012-09-06T16:00:00Z,29.4412,-92.0613,10.0,4.804,338.0,,'11111222,11111222,99999999' 
WAVCIS,ioos:station:WAVCIS:CSI03:3,2012-09-06T17:00:00Z,29.4412,-92.0613,10.0,4.399,325.0,,'11111222,11111222,99999999' 
WAVCIS,ioos:station:WAVCIS:CSI03:3,2012-09-06T18:00:00Z,29.4412,-92.0613,10.0,2.636,285.0,,'11111222,11111222,99999999' 
WAVCIS,ioos:station:WAVCIS:CSI03:3,2012-09-06T19:00:00Z,29.4412,-92.0613,10.0,4.312,272.0,,'11111222,11111222,99999999' 
WAVCIS,ioos:station:WAVCIS:CSI03:3,2012-09-06T20:00:00Z,29.4412,-92.0613,10.0,4.58,273.0,,'11111222,11111222,99999999' 
WAVCIS,ioos:station:WAVCIS:CSI03:3,2012-09-06T21:00:00Z,29.4412,-92.0613,10.0,5.579,274.0,,'11111222,11111222,99999999' 
WAVCIS,ioos:station:WAVCIS:CSI03:3,2012-09-06T22:00:00Z,29.4412,-92.0613,10.0,6.032,278.0,,'11111222,11111222,99999999' 
WAVCIS,ioos:station:WAVCIS:CSI03:3,2012-09-06T23:00:00Z,29.4412,-92.0613,10.0,6.508,275.0,,'11111222,11111222,99999999' 
WAVCIS,ioos:station:WAVCIS:CSI03:3,2012-09-07T00:00:00Z,29.4412,-92.0613,10.0,6.89,276.0,,'11111222,11111222,99999999' 
WAVCIS,ioos:station:WAVCIS:CSI03:3,2012-09-07T01:00:00Z,29.4412,-92.0613,10.0,6.904,276.0,,'11111222,11111222,99999999' 
WAVCIS,ioos:station:WAVCIS:CSI03:3,2012-09-07T02:00:00Z,29.4412,-92.0613,10.0,6.864,286.0,,'11111222,11111222,99999999' 
WAVCIS,ioos:station:WAVCIS:CSI03:3,2012-09-07T03:00:00Z,29.4412,-92.0613,10.0,7.07,287.0,,'11111222,11111222,99999999' 
WAVCIS,ioos:station:WAVCIS:CSI03:3,2012-09-07T04:00:00Z,29.4412,-92.0613,10.0,6.461,285.0,,'11111222,11111222,99999999' 
WAVCIS,ioos:station:WAVCIS:CSI03:3,2012-09-07T05:00:00Z,29.4412,-92.0613,10.0,3.988,288.0,,'11111222,11111222,99999999' 
WAVCIS,ioos:station:WAVCIS:CSI03:3,2012-09-07T06:00:00Z,29.4412,-92.0613,10.0,4.241,323.0,,'11111222,11111222,99999999' 
WAVCIS,ioos:station:WAVCIS:CSI03:3,2012-09-07T07:00:00Z,29.4412,-92.0613,10.0,6.003,328.0,,'11111222,11111222,99999999' 
WAVCIS,ioos:station:WAVCIS:CSI03:3,2012-09-07T08:00:00Z,29.4412,-92.0613,10.0,6.164,336.0,,'11111222,11111222,99999999' 
WAVCIS,ioos:station:WAVCIS:CSI03:3,2012-09-07T09:00:00Z,29.4412,-92.0613,10.0,4.361,359.0,,'11111222,11111222,99999999' 
WAVCIS,ioos:station:WAVCIS:CSI03:3,2012-09-07T10:00:00Z,29.4412,-92.0613,10.0,4.581,12.0,,'11111222,11111222,99999999' 
WAVCIS,ioos:station:WAVCIS:CSI03:3,2012-09-07T11:00:00Z,29.4412,-92.0613,10.0,4.27,15.0,,'11111222,11111222,99999999' 
WAVCIS,ioos:station:WAVCIS:CSI03:3,2012-09-07T12:00:00Z,29.4412,-92.0613,10.0,3.672,27.0,,'11111222,11111222,99999999' 
WAVCIS,ioos:station:WAVCIS:CSI03:3,2012-09-07T13:00:00Z,29.4412,-92.0613,10.0,3.68,42.0,,'11111222,11111222,99999999' 
WAVCIS,ioos:station:WAVCIS:CSI03:3,2012-09-07T14:00:00Z,29.4412,-92.0613,10.0,2.855,30.0,,'11111222,11111222,99999999' 
WAVCIS,ioos:station:WAVCIS:CSI03:3,2012-09-07T15:00:00Z,29.4412,-92.0613,10.0,3.053,26.0,,'11111222,11111222,99999999' 
WAVCIS,ioos:station:WAVCIS:CSI03:3,2012-09-07T16:00:00Z,29.4412,-92.0613,10.0,3.108,32.0,,'11111222,11111222,99999999' 
WAVCIS,ioos:station:WAVCIS:CSI03:3,2012-09-07T17:00:00Z,29.4412,-92.0613,10.0,2.941,26.0,,'11111222,11111222,99999999' 
WAVCIS,ioos:station:WAVCIS:CSI03:3,2012-09-07T18:00:00Z,29.4412,-92.0613,10.0,3.007,134.0,,'11111222,11111222,99999999' 
WAVCIS,ioos:station:WAVCIS:CSI03:3,2012-09-07T19:00:00Z,29.4412,-92.0613,10.0,2.947,177.0,,'11111222,11111222,99999999' 
WAVCIS,ioos:station:WAVCIS:CSI03:3,2012-09-07T20:00:00Z,29.4412,-92.0613,10.0,2.535,188.0,,'11111222,11111222,99999999' 
WAVCIS,ioos:station:WAVCIS:CSI03:3,2012-09-07T21:00:00Z,29.4412,-92.0613,10.0,3.077,251.0,,'11111222,11111222,99999999' 
WAVCIS,ioos:station:WAVCIS:CSI03:3,2012-09-07T22:00:00Z,29.4412,-92.0613,10.0,3.936,246.0,,'11111222,11111222,99999999' 
WAVCIS,ioos:station:WAVCIS:CSI03:3,2012-09-07T23:00:00Z,29.4412,-92.0613,10.0,4.654,268.0,,'11111222,11111222,99999999' 
WAVCIS,ioos:station:WAVCIS:CSI03:3,2012-09-08T00:00:00Z,29.4412,-92.0613,10.0,3.826,255.0,,'11111222,11111222,99999999' 
WAVCIS,ioos:station:WAVCIS:CSI03:3,2012-09-08T01:00:00Z,29.4412,-92.0613,10.0,5.668,275.0,,'11111222,11111222,99999999' 
WAVCIS,ioos:station:WAVCIS:CSI03:3,2012-09-08T02:00:00Z,29.4412,-92.0613,10.0,5.554,268.0,,'11111222,11111222,99999999' 
WAVCIS,ioos:station:WAVCIS:CSI03:3,2012-09-08T03:00:00Z,29.4412,-92.0613,10.0,4.805,268.0,,'11111222,11111222,99999999' 
WAVCIS,ioos:station:WAVCIS:CSI03:3,2012-09-08T04:00:00Z,29.4412,-92.0613,10.0,3.365,148.0,,'11111222,11111222,99999999' 
WAVCIS,ioos:station:WAVCIS:CSI03:3,2012-09-08T05:00:00Z,29.4412,-92.0613,10.0,0.824,56.0,,'11111222,11111222,99999999' 
WAVCIS,ioos:station:WAVCIS:CSI03:3,2012-09-08T06:00:00Z,29.4412,-92.0613,10.0,1.765,256.0,,'11111222,11111222,99999999' 
WAVCIS,ioos:station:WAVCIS:CSI03:3,2012-09-08T07:00:00Z,29.4412,-92.0613,10.0,2.605,281.0,,'11111222,11111222,99999999' 
WAVCIS,ioos:station:WAVCIS:CSI03:3,2012-09-08T08:00:00Z,29.4412,-92.0613,10.0,3.566,282.0,,'11111222,11111222,99999999' 
WAVCIS,ioos:station:WAVCIS:CSI03:3,2012-09-08T09:00:00Z,29.4412,-92.0613,10.0,4.273,284.0,,'11111222,11111222,99999999' 
WAVCIS,ioos:station:WAVCIS:CSI03:3,2012-09-08T10:00:00Z,29.4412,-92.0613,10.0,4.866,285.0,,'11111222,11111222,99999999' 
WAVCIS,ioos:station:WAVCIS:CSI03:3,2012-09-08T11:00:00Z,29.4412,-92.0613,10.0,4.03,292.0,,'11111222,11111222,99999999' 
WAVCIS,ioos:station:WAVCIS:CSI03:3,2012-09-08T12:00:00Z,29.4412,-92.0613,10.0,3.204,304.0,,'11111222,11111222,99999999' 
WAVCIS,ioos:station:WAVCIS:CSI03:3,2012-09-08T13:00:00Z,29.4412,-92.0613,10.0,4.944,318.0,,'11111222,11111222,99999999' 
WAVCIS,ioos:station:WAVCIS:CSI03:3,2012-09-08T14:00:00Z,29.4412,-92.0613,10.0,6.594,324.0,,'11111222,11111222,99999999' 
WAVCIS,ioos:station:WAVCIS:CSI03:3,2012-09-08T15:00:00Z,29.4412,-92.0613,10.0,8.99,329.0,,'11111222,11111222,99999999' 
WAVCIS,ioos:station:WAVCIS:CSI03:3,2012-09-08T16:00:00Z,29.4412,-92.0613,10.0,8.13,330.0,,'11111222,11111222,99999999' 
WAVCIS,ioos:station:WAVCIS:CSI03:3,2012-09-08T17:00:00Z,29.4412,-92.0613,10.0,5.21,322.0,,'11111222,11111222,99999999' 
WAVCIS,ioos:station:WAVCIS:CSI03:3,2012-09-08T18:00:00Z,29.4412,-92.0613,10.0,4.908,276.0,,'11111222,11111222,99999999' 
WAVCIS,ioos:station:WAVCIS:CSI03:3,2012-09-08T19:00:00Z,29.4412,-92.0613,10.0,4.008,255.0,,'11111222,11111222,99999999' 
WAVCIS,ioos:station:WAVCIS:CSI03:3,2012-09-08T20:00:00Z,29.4412,-92.0613,10.0,6.517,266.0,,'11111222,11111222,99999999' 
WAVCIS,ioos:station:WAVCIS:CSI03:3,2012-09-08T21:00:00Z,29.4412,-92.0613,10.0,8.2,272.0,,'11111222,11111222,99999999' 
WAVCIS,ioos:station:WAVCIS:CSI03:3,2012-09-08T22:00:00Z,29.4412,-92.0613,10.0,10.82,338.0,,'11111222,11111222,99999999' 
WAVCIS,ioos:station:WAVCIS:CSI03:3,2012-09-08T23:00:00Z,29.4412,-92.0613,10.0,2.906,2.0,,'11111222,11111222,99999999' 
WAVCIS,ioos:station:WAVCIS:CSI03:3,2012-09-09T00:00:00Z,29.4412,-92.0613,10.0,6.444,3.0,,'11111222,11111222,99999999' 
WAVCIS,ioos:station:WAVCIS:CSI03:3,2012-09-09T01:00:00Z,29.4412,-92.0613,10.0,8.3,3.0,,'11111222,11111222,99999999' 
WAVCIS,ioos:station:WAVCIS:CSI03:3,2012-09-09T02:00:00Z,29.4412,-92.0613,10.0,8.35,26.0,,'11111222,11111222,99999999' 
WAVCIS,ioos:station:WAVCIS:CSI03:3,2012-09-09T03:00:00Z,29.4412,-92.0613,10.0,7.22,33.0,,'11111222,11111222,99999999' 
WAVCIS,ioos:station:WAVCIS:CSI03:3,2012-09-09T04:00:00Z,29.4412,-92.0613,10.0,7.51,34.0,,'11111222,11111222,99999999' 